Home   Weather   Recife   Past weeks

Flag for Brazil Past Weather in Recife, Pernambuco, Brazil — Yesterday and Last 2 Weeks

Now
82 °F

Passing clouds.


Feels Like: 88 °F
Forecast: 79 / 87 °F
Wind: 9 mph from East

Location: Recife Aeroporto

Current Time: Dec 8, 2016 at 9:18:16 pm

Latest Report: Dec 8, 2016 at 8:00 pm


Visibility: N/A

Pressure: 29.89 "Hg

Humidity: 74%

Dew Point: 73 °F

Location of RecifeLocation

Past Weather in Recife — Graph

°F

Recife Temperature Yesterday

Maximum temperature yesterday: 88 °F (at 1:00 pm)
Minimum temperature yesterday: 79 °F (at 1:00 am)
Average temperature yesterday: 83 °F

High & Low Weather Summary for the Past Weeks

 TemperatureHumidityPressure
High88 °F (Nov 24, 10:00 am)89% (Nov 27, 2:00 am)29.98 "Hg (Nov 27, 2:00 am)
Low77 °F (Nov 27, 2:00 am)55% (Nov 30, 1:00 pm)29.83 "Hg (Nov 29, 3:00 pm)
Average82 °F74%29.91 "Hg
* Reported Nov 23 8:00 pm — Dec 8 8:00 pm, Recife, Weather by CustomWeather, © 2016

Note: Actual official high and low records may vary slightly from our data, if they occured in-between our weather recording intervals... More about our weather records

Advertising

Recife Weather History for the Previous 24 Hours

Scroll right to see more
 ConditionsComfort  
Time TempWeatherWind HumidityBarometerVisibility
8:00 pm
Thu, Dec 8
82 °FPassing clouds.9 mph74%29.89 "HgN/A
7:00 pm82 °FPassing clouds.8 mph79%29.86 "HgN/A
6:00 pm82 °FPassing clouds.8 mph79%29.86 "HgN/A
5:00 pm84 °FPassing clouds.7 mph70%29.83 "HgN/A
4:00 pm84 °FPassing clouds.10 mph70%29.83 "HgN/A
3:00 pm86 °FPassing clouds.12 mph66%29.83 "HgN/A
2:00 pm86 °FPassing clouds.10 mph66%29.86 "HgN/A
1:00 pm88 °FPassing clouds.10 mph66%29.86 "HgN/A
12:00 pm86 °FScattered clouds.12 mph70%29.89 "HgN/A
11:00 am88 °FScattered clouds.12 mph62%29.89 "HgN/A
10:00 am86 °FScattered clouds.10 mph66%29.92 "HgN/A
9:00 am86 °FScattered clouds.8 mph66%29.92 "HgN/A
8:00 am86 °FScattered clouds.8 mph66%29.92 "HgN/A
7:00 am79 °FScattered clouds.6 mph84%29.89 "HgN/A
6:00 am77 °FScattered clouds.5 mph89%29.89 "HgN/A
5:00 am77 °FPassing clouds.5 mph83%29.89 "HgN/A
4:00 am79 °FPassing clouds.6 mph84%29.86 "HgN/A
3:00 am81 °FPassing clouds.6 mph79%29.86 "HgN/A
2:00 am81 °FPassing clouds.5 mph79%29.86 "HgN/A
1:00 am81 °FPassing clouds.9 mph79%29.86 "HgN/A
12:00 am81 °FPassing clouds.6 mph79%29.86 "HgN/A
11:00 pm
Wed, Dec 7
82 °FPassing clouds.8 mph74%29.89 "HgN/A
10:00 pm82 °FPassing clouds.8 mph74%29.89 "HgN/A
9:00 pm82 °FPassing clouds.7 mph79%29.89 "HgN/A
Weather by CustomWeather, © 2016

See weather overviewHow to use our weather pages